{"data":{"norad_id":60459,"epoch":"2026-09-22T23:14:38.361984Z","epoch_age_seconds":72926,"freshness":"FRESH","line1":"1 60459U 24148B   26265.96849956  .00010355  00000+0  27055-3 0  9995","line2":"2 60459  34.9914 225.8878 0006311  20.2363 339.8605 15.37947250117481","mean_motion":15.3794725,"eccentricity":0.0006311,"inclination_deg":34.9914,"raan_deg":225.8878,"arg_perigee_deg":20.2363,"mean_anomaly_deg":339.8605,"bstar":0.00027055,"rev_number":11748,"period_min":93.631299773123,"perigee_km":447.8697223003,"apogee_km":456.49094884126,"semimajor_km":6830.3173355708,"source":"CELESTRAK","updated_at":"2026-09-23T09:00:20.618336Z"}}